Regional Weather Roundup
Issued by NWS

Home | Current Version | Previous Version | Graphics & Text | Print | Product List | Glossary On
Versions: 1 2 3 4 5 6 7 8 9 10 11 12 13 14 15 16 17 18 19 20 21 22 23 24 25 26 27 28 29 30 31 32 33 34 35 36 37 38 39 40 41 42 43 44 45 46 47 48 49 50
000
ASUS43 KTOP 251608
RWRKS

WEATHER ROUNDUP FOR KANSAS
NATIONAL WEATHER SERVICE GOODLAND KS
1100 AM CDT MON JUL 25 2016

NOTE:  "FAIR" INDICATES FEW OR NO CLOUDS BELOW 12,000 FEET WITH NO
SIGNIFICANT WEATHER AND/OR OBSTRUCTIONS TO VISIBILITY.

KSZ001>006-013>018-027>032-041>047-251700-
NORTHWEST KANSAS

CITY           SKY/WX    TMP DP  RH WIND       PRES   REMARKS
GOODLAND       SUNNY     75  62  64 SE3       30.20S
HAYS           CLOUDY    72  63  73 CALM      30.15F
HILL CITY      CLOUDY    72  67  84 SE13      30.17F
RUSSELL        CLOUDY    71  69  93 SE13      30.11F
$$

KSZ061>065-074>080-084>089-251700-
SOUTHWEST KANSAS

CITY           SKY/WX    TMP DP  RH WIND       PRES   REMARKS
DODGE CITY     CLOUDY    75  67  76 E12G18    30.17R
ELKHART          N/A     76  66  71 N7          N/A
GARDEN CITY    PTSUNNY   73  66  78 E14       30.18R
GREAT BEND     CLOUDY    72  64  78 E9        30.14S
LIBERAL        CLOUDY    73  66  78 NE8       30.19R
PRATT          CLOUDY    72  64  78 E9        30.14R
$$

KSZ066>073-081>083-090>101-251700-
SOUTHEAST KANSAS

CITY           SKY/WX    TMP DP  RH WIND       PRES   REMARKS
CHANUTE        LGT RAIN  73  71  93 NE8       30.05F
COFFEYVILLE    CLOUDY    72  69  90 E16G22    30.05F
HUTCHINSON     PTSUNNY   73  67  81 N3        30.11S
MEDICINE LODGE   N/A     78  68  71 NE12      30.10S
NEWTON         CLOUDY    73  70  90 NE6       30.09R
PARSONS          N/A    N/A N/A N/A MISG      30.07F
WICHITA INTL   CLOUDY    76  68  76 E7        30.08R
WICHITA JABRA  CLOUDY    74  69  85 VRB3      30.07R
WICHITA MCCONL CLOUDY    75  67  78 SE7       30.08R
WINFIELD       CLOUDY    77  68  73 E18G26    30.06S
$$

KSZ007>012-019>026-033>040-048>060-102>105-251700-
NORTHEAST KANSAS

CITY           SKY/WX    TMP DP  RH WIND       PRES   REMARKS
CONCORDIA      PTSUNNY   71  68  90 E7        30.11F
EMPORIA        CLOUDY    72  70  93 E5        30.09F
LAWRENCE       CLOUDY    75  69  81 NW3       30.12S
MANHATTAN      LGT RAIN  72  68  87 NE9       30.09F
MARYSVILLE     CLOUDY    77  66  69 E5        30.13F
OLATHE IND       N/A    N/A N/A N/A MISG      30.13R
OLATHE EXE     CLOUDY    75  70  84 W5        30.12R
SALINA         CLOUDY    72  69  90 NE3       30.13R
TOPEKA BILLARD CLOUDY    74  69  85 N3        30.12R
TOPEKA FORBES  LGT RAIN  74  71  91 NE3       30.11F
$$




USA.gov is the U.S. government's official web portal to all federal, state and local government web resources and services.